map of SZA home
SZA - Airport
Location
City:  Soyo, Zaire, Angola
ICAO:FNSO
IATA:SZA

Details
Type:Airport (Aerodrome, Airfield)
Latitude:608'28"S (-6.141085)
Longitude:1222'18"E (12.371764)
Datum:WGS 1984
Elevation:15 ft (5 m)
Variation:2.95W (WMM2015 magnetic declination)
0.16 annual change
Runways:1
Longest:6857 × 174 ft (2090 × 53 m), paved

Time
Time Zone:UTC+1
Local Time:

Weather
METAR:FNSO 241600Z 20004KT 9999 FEW011 BKN090 ///// Q1011
TAF:FNSO 232300Z 2400/2412 03007KT 9999 SCT015 BKN023
TEMPO 2401/2405 VRB03KT 5000 -RADZ SCT010 OVC017
BECMG 2409/2411 22010KT FEW020 SCT030

Related Locations
Nearby:
Farthest:PLPA: 12067 mi / 19421 km
Palmyra Island Atoll [Palmyra Airport (Cooper)], UM

Find:

   beyond  
but within

Other Information
Maps:
NOTAMs:
Links:
Sources:

  
flag of Angola   

Sectional Chart

Flight Planning
at skyvector.com

Satellite Image

Google Maps Satellite view

 

Copyright © 2004-2017 Karl L. Swartz. All rights reserved.
The Great Circle Mapper name and logo are trademarks of the Great Circle Mapper.
All other trademarks mentioned herein belong to their respective owners.
Please see credits for attibutions and further copyright information.

  Follow gcmap on Facebook Follow gcmap on Twitter Follow gcmap on Google+ GCmap on LinkedIn

hCard Microformat

Geo Microformat